This demonstration page uses our WeatherBlox Daily Observations layout. Learn more.

Left ArrowRight Arrow

39.92423, -83.80882

Hourly Observations for January 7, 2015

Temp ( °F °C ) Dew Point ( °F °C ) Humidity (%) Winds ( mph kmh ) Pressure ( in mb ) Visibility ( mi km ) Precip ( " mm )
12:56 am 00:56 Clear 10 -12.2 3 -16.1 73 73 WSW 14 22 30.26 1025 10 16 0.00 0.00
1:56 am 01:56 Clear 10 -12.2 3 -16.1 73 73 W 16 26 30.26 1025 10 16 0.00 0.00
2:56 am 02:56 Cloudy with Light Snow 11 -11.6 4 -15.5 73 73 W 14 22 30.28 1025 5 8 0.00 0.03
3:20 am 03:20 Mostly Cloudy with Light Snow 10 -12 7 -14 85 85 W 14 22 30.33 1027 3 5 0.00 0.03
3:36 am 03:36 Cloudy with Light Snow 10 -12 7 -14 85 85 W 15 24 30.33 1027 3 4 0.00 0.03
3:48 am 03:48 Cloudy with Light Snow 10 -12 7 -14 85 85 W 13 20 30.33 1027 3 5 0.00 0.03
3:56 am 03:56 Cloudy with Light Snow 10 -12.2 6 -14.4 84 84 W 15 24 30.28 1025 4 6 0.00 0.03
4:13 am 04:13 Cloudy 10 -12 7 -14 85 85 W 15 24 30.33 1027 7 11 0.00 0.03
4:56 am 04:56 Cloudy with Light Snow 10 -12.2 5 -15 80 80 W 18 30 30.30 1026 3 5 0.00 0.03
5:56 am 05:56 Cloudy 10 -12.2 4 -15.5 77 77 W 18 30 30.31 1026 8 13 0.00 0.03
6:23 am 06:23 Cloudy 9 -13 3 -16 78 78 W 15 24 30.39 1029 9 14 0.00 0.00
6:56 am 06:56 Mostly Cloudy 9 -12.7 1 -17.2 69 69 W 16 26 30.34 1028 9 14 0.00 0.00
7:30 am 07:30 Cloudy with Light Snow 9 -13 1 -17 72 72 W 16 26 30.42 1030 6 10 0.00 0.03
7:36 am 07:36 Cloudy with Light Snow 9 -13 1 -17 72 72 W 16 26 30.42 1030 5 8 0.00 0.03
7:47 am 07:47 Cloudy with Light Snow 7 -14 1 -17 78 78 WNW 17 28 30.45 1031 4 6 0.00 0.03
7:56 am 07:56 Cloudy with Light Snow 7 -13.8 2 -16.6 80 80 WNW 18 30 30.38 1029 3 4 0.00 0.03
8:07 am 08:07 Cloudy with Light Snow 7 -14 1 -17 78 78 W 16 26 30.45 1031 3 5 0.00 0.03
8:28 am 08:28 Cloudy with Haze 7 -14 1 -17 78 78 WNW 17 28 30.45 1031 4 6 0.00 0.03
8:56 am 08:56 Cloudy with Haze 6 -14.4 0 -17.7 76 76 W 17 28 30.42 1030 6 10 0.00 0.03
9:03 am 09:03 Cloudy 7 -14 0 -18 72 72 W 20 31 30.48 1032 7 11 0.00 0.00
9:32 am 09:32 Cloudy with Light Snow 7 -14 0 -18 72 72 WNW 16 26 30.50 1033 2 3 0.00 0.03
9:56 am 09:56 Cloudy with Light Snow 6 -14.4 0 -17.7 76 76 WNW 18 30 30.47 1032 3 5 0.00 0.03
10:20 am 10:20 Mostly Cloudy with Haze 7 -14 0 -18 72 72 W 15 24 30.53 1034 6 10 0.00 0.03
10:48 am 10:48 Hazy 7 -14 0 -18 72 72 W 15 24 30.53 1034 6 10 0.00 0.03
10:56 am 10:56 Partly Cloudy 7 -13.8 0 -17.7 73 73 WNW 17 28 30.50 1033 7 11 0.00 0.03
11:56 am 11:56 Sunny 9 -12.7 0 -17.7 67 67 WNW 18 30 30.52 1033 8 13 0.00 0.00
12:56 pm 12:56 Sunny 9 -12.7 1 -17.2 69 69 W 15 24 30.53 1034 8 13 0.00 0.00
1:56 pm 13:56 Mostly Cloudy with Haze 10 -12.2 1 -17.2 67 67 W 18 30 30.54 1034 5 8 0.00 0.00
2:04 pm 14:04 Cloudy with Haze 9 -13 1 -17 72 72 W 20 31 30.59 1036 3 5 0.00 0.00
2:11 pm 14:11 Cloudy with Light Snow 9 -13 1 -17 72 72 WNW 18 30 30.59 1036 3 4 0.00 0.03
2:22 pm 14:22 Cloudy with Light Snow 9 -13 1 -17 72 72 W 15 24 30.62 1037 3 5 0.00 0.03
2:29 pm 14:29 Cloudy with Light Snow 9 -13 1 -17 72 72 W 17 28 30.62 1037 3 5 0.00 0.03
2:56 pm 14:56 Partly Cloudy 8 -13.3 0 -17.7 70 70 WNW 20 31 30.58 1036 7 11 0.00 0.03
3:56 pm 15:56 Sunny 8 -13.3 -1 -18.3 66 66 W 17 28 30.61 1037 8 13 0.00 0.00
4:56 pm 16:56 Mostly Sunny 6 -14.4 -2 -18.8 70 70 W 18 30 30.64 1038 7 11 0.00 0.00
5:22 pm 17:22 Mostly Cloudy with Haze 5 -15 -2 -19 72 72 W 16 26 30.71 1040 5 8 0.00 0.00
5:45 pm 17:45 Cloudy with Haze 5 -15 -2 -19 72 72 W 18 30 30.71 1040 4 6 0.00 0.00
5:56 pm 17:56 Cloudy with Haze 5 -15 -2 -18.8 73 73 W 12 19 30.67 1039 4 6 0.00 0.00
6:28 pm 18:28 Cloudy 3 -16 -2 -19 78 78 W 16 26 30.74 1041 9 14 0.00 0.00
6:56 pm 18:56 Mostly Cloudy 3 -16.1 -3 -19.4 76 76 W 15 24 30.71 1040 7 11 0.00 0.00
7:03 pm 19:03 Mostly Cloudy 3 -16 -4 -20 72 72 W 15 24 30.74 1041 8 13 0.00 0.00
7:28 pm 19:28 Mostly Cloudy 3 -16 -4 -20 72 72 W 15 24 30.77 1042 9 14 0.00 0.00
7:39 pm 19:39 Partly Cloudy 3 -16 -4 -20 72 72 W 15 24 30.77 1042 9 14 0.00 0.00
7:56 pm 19:56 Partly Cloudy 3 -16.1 -4 -20 72 72 W 14 22 30.72 1040 9 14 0.00 0.00
8:56 pm 20:56 Clear 1 -17.2 -7 -21.6 69 69 W 15 24 30.73 1041 9 14 0.00 0.00
9:56 pm 21:56 Mostly Clear 0 -17.7 -9 -22.7 65 65 W 15 24 30.74 1041 9 14 0.00 0.00
10:56 pm 22:56 Clear -2 -18.8 -10 -23.3 68 68 W 13 20 30.74 1041 9 14 0.00 0.00
11:56 pm 23:56 Clear -3 -19.4 -11 -23.8 68 68 W 10 17 30.73 1041 9 14 0.00 0.00

Powered by AerisWeather